SES-6

Last updated on Tue Sep 22 2026 00:03:12 GMT+0000 (Coordinated Universal Time)

1 39172U 13026A 26264.48109731 -.00000265 00000+0 00000+0 0 9999 2 39172 0.0420 312.0534 0002485 232.6205 308.3972 1.00271019 48697
UTC large
Height (km)
Speed (km/s)
/
Latitude / Longitude
Inclination (degrees)
Orbital Period (minutes)
Azimuth
Elevation
Range (km)
Doppler Factor

Next 0 passes for location: London (51.5072 / 0.1276)

No passes found over London.
SES-6